Temp_Advection
nan nan nan nan nan nan nan nan nan nan nan nan nan nan nan nan nan nan nan nan nan nan nan nan nan nan nan nan nan nan nan nan nan nan nan nan nan nan nan nan nan nan nan nan
nan -0 -1 -0 0 0 -0 -0 -1 -2 -1 0 1 -1 -1 -1 -0 0 1 0 -0 -1 -0 -0 1 0 1 -1 -3 -4 -1 0 1 0 1 -0 0 0 1 1 0 0 0 nan
nan -1 -0 0 0 -0 -0 -1 -0 -0 -1 0 1 -0 -2 -1 -0 0 0 -0 -1 -2 -0 1 1 1 1 -0 -4 -4 0 1 0 1 1 -0 1 1 0 -0 -0 0 0 nan
nan -1 0 0 0 -0 -1 -1 0 1 0 -0 -0 -0 -1 -1 0 1 0 -1 -2 -0 1 0 -1 0 1 -3 -3 -2 0 1 -0 1 0 0 1 0 -0 -0 -0 0 0 nan
nan -0 0 0 -1 0 -1 -0 0 0 0 -1 -0 -0 -0 0 0 0 -0 -1 -1 1 1 -1 1 -0 -2 -3 -1 -0 0 0 0 -0 1 2 1 1 0 1 0 0 0 nan
nan -0 0 -0 0 -0 -0 -0 -0 0 0 -0 -0 -0 -0 0 0 0 -1 -1 0 1 -0 0 -1 -2 -2 1 2 -6 0 1 1 1 2 1 1 1 1 0 0 -0 -0 nan
nan 0 -0 -1 0 -0 0 -0 0 0 -0 -0 -0 0 -0 -0 -0 0 -1 -1 -0 -0 -0 1 -2 -1 -1 1 -4 -6 1 1 1 2 -0 -0 -0 -0 0 0 0 0 -0 nan
nan -0 0 -0 0 0 0 -0 0 0 -0 -0 -0 -0 -0 0 0 0 -0 -0 0 -0 -0 -1 -2 -2 -0 -1 -1 0 0 1 0 1 -0 0 0 0 0 0 1 1 -0 nan
nan -0 -1 -0 -0 0 0 0 -0 0 -0 -0 -0 -0 -0 -1 -1 -1 -0 -0 -0 -0 -0 -1 -1 -1 1 -0 0 0 0 -0 0 0 0 0 0 0 -0 0 0 -0 -1 nan
nan -0 -0 -1 -0 -0 0 0 0 0 -0 -0 0 -1 -0 -1 -0 -1 -0 0 -0 -0 0 -0 -0 0 0 -0 0 0 0 0 0 0 0 -0 -0 0 0 -0 -0 -0 -0 nan
nan -0 -0 -0 -0 -0 -0 -0 -0 -0 -0 -0 -0 -0 -0 -0 -0 -0 -0 0 0 -0 -0 -0 0 1 -1 -0 0 0 0 0 1 0 0 0 0 0 0 -0 -0 -0 -0 nan
nan 0 -0 -1 -1 -0 0 -0 0 -0 -0 -0 -0 -0 -0 -0 -0 -0 -0 -0 -0 -0 -0 -0 -0 0 -0 0 0 0 0 0 0 0 0 1 0 -0 -0 -0 -1 -0 0 nan
nan 0 0 -0 -0 -0 -0 -0 0 0 -0 -0 -0 -0 0 0 0 -0 -0 -0 0 0 0 0 -0 1 1 -0 0 0 0 0 0 0 0 1 0 -0 -1 -0 -0 1 1 nan
nan 0 -0 -0 -0 -0 -1 -2 -1 0 -0 -0 -0 -1 -0 0 0 -0 -0 -0 -0 -0 0 0 1 1 0 0 0 0 0 -0 0 1 1 0 0 -0 -0 0 1 1 1 nan
nan 0 -0 -0 -0 -0 -0 -1 -1 -1 -0 -0 -1 -1 -1 -0 0 -0 -2 -2 -2 -2 -1 -0 1 1 1 2 0 0 0 0 0 0 -0 -0 -0 0 0 0 1 1 1 nan
nan -0 -0 -0 -0 0 -0 -1 -0 -1 -1 -0 -0 -1 -1 -0 -1 -2 -2 -2 -2 -1 -2 -1 -0 0 1 1 1 0 0 1 1 -0 -0 0 0 -1 0 1 0 1 1 nan
nan 0 0 -0 -0 -0 -0 -1 -0 0 -1 -1 -0 -1 -1 -1 -1 -1 -1 -1 -1 -1 -1 -1 -1 -1 1 0 0 -0 0 1 0 -1 0 0 -1 -0 1 0 1 0 0 nan
nan -0 0 0 -0 -0 -1 -0 -0 -0 -0 -1 -0 -1 -1 -0 -0 0 -0 -0 -0 -1 -0 -1 -0 -0 -0 0 0 0 0 0 -0 0 0 -0 -0 0 0 0 -0 -0 0 nan
nan 0 0 0 -0 -1 -0 -0 -0 -0 -0 -0 -0 -0 -1 -0 -0 -0 -0 -0 0 -0 -1 0 -0 -0 -0 -0 -0 0 0 0 0 0 -0 0 0 1 0 0 0 1 0 nan
nan 0 0 0 -0 0 -0 -0 -0 0 0 -0 -0 -0 -0 -1 -0 -0 -0 -0 0 -0 -0 -0 -0 -0 -1 -0 -0 -0 -0 -0 0 0 0 0 0 -0 0 0 0 0 0 nan
nan 0 0 -0 0 0 -0 -1 -1 0 -0 -1 -1 -1 -1 -0 -0 -0 -0 -0 -0 -0 0 -0 -0 -1 -0 -1 -0 -0 -0 -0 -0 0 0 0 0 0 1 1 0 0 0 nan
nan -0 0 0 -0 -0 -1 -0 -1 -1 -1 -2 -1 -1 -1 -1 -1 -1 -1 -0 -0 -0 -0 -0 -0 -0 -0 -0 -0 -0 -0 -0 0 -0 0 0 0 1 1 0 0 0 0 nan
nan 0 -0 -0 0 -1 -3 -1 -1 -1 -1 -1 -1 -1 -1 -1 -1 -1 -1 -1 -1 -1 -0 -0 -0 -0 -0 -0 -0 -0 -0 0 0 -0 0 0 0 0 0 0 0 1 1 nan
nan -0 0 -0 -0 -1 -1 -1 -1 -1 -1 -1 -1 -1 -1 -1 -0 -0 -1 -1 -1 -1 -1 -0 -0 -0 -0 -0 -0 -0 -0 -0 0 0 0 0 0 0 0 1 1 1 1 nan
nan -1 -1 0 -1 0 -1 -1 -1 -1 -1 -1 -1 -1 -1 -1 -1 -1 -1 -1 -0 -1 -1 -1 -0 -0 -0 -0 -0 -0 -0 -0 -0 0 0 0 0 0 1 1 1 1 1 nan
nan nan nan nan nan nan nan nan nan nan nan nan nan nan nan nan nan nan nan nan nan nan nan nan nan nan nan nan nan nan nan nan nan nan nan nan nan nan nan nan nan nan nan nan
Wind_Speed
10 4 13 16 18 18 19 22 25 31 27 20 23 31 29 28 29 25 30 37 45 51 55 43 45 48 56 45 51 32 59 61 59 56 53 51 53 47 43 42 40 35 34 33
5 15 21 16 17 18 20 23 30 33 25 16 21 30 29 26 24 31 34 37 38 45 46 41 47 51 53 47 58 43 66 66 62 58 55 53 51 48 44 41 41 38 33 35
12 10 4 7 13 14 19 22 27 28 33 24 26 35 30 32 35 42 43 43 39 44 43 46 40 44 37 57 55 34 60 66 62 60 55 53 49 46 44 42 41 39 36 34
10 15 13 12 15 11 17 19 21 22 17 12 8 15 29 20 28 23 28 36 39 41 38 40 44 42 52 56 55 43 67 67 64 63 61 57 55 51 47 44 40 41 39 34
8 7 6 9 13 6 14 14 16 23 21 17 25 7 10 7 11 11 13 24 36 41 37 40 43 46 48 45 49 33 56 63 66 63 58 57 53 49 47 46 43 39 38 36
20 12 8 9 12 10 12 11 20 18 6 5 12 7 6 6 11 7 10 22 29 32 39 38 40 35 36 44 51 77 64 65 65 64 59 58 55 51 51 47 42 39 36 36
5 10 6 10 7 1 1 8 7 4 2 6 4 7 6 16 15 14 16 21 33 35 33 32 37 30 44 59 69 75 71 67 63 63 58 58 55 54 53 49 44 41 38 38
3 7 2 2 4 10 11 5 5 8 6 15 17 4 3 7 10 13 18 29 33 34 35 42 46 35 36 39 52 58 61 61 60 56 58 57 55 52 49 48 45 43 40 38
4 5 10 17 7 3 6 4 5 5 7 5 5 4 6 24 19 18 17 10 24 32 30 32 24 16 20 43 55 60 59 59 58 56 51 52 48 49 50 49 45 43 37 37
3 8 9 10 9 10 9 5 4 3 5 6 6 8 8 21 23 18 19 3 9 22 28 25 30 31 28 35 41 51 54 56 54 53 53 49 47 48 43 40 39 35 36 35
3 6 4 7 4 10 3 5 4 4 3 4 5 6 10 16 15 14 11 13 10 19 24 31 33 30 49 36 41 46 52 51 52 53 47 46 45 42 41 39 36 33 35 36
1 4 5 8 19 9 7 5 5 4 7 5 3 6 7 11 14 13 13 17 10 20 25 26 34 24 22 20 32 38 45 47 48 46 46 45 42 40 41 39 36 33 34 34
2 1 6 8 5 5 3 10 11 10 7 4 3 5 7 14 16 15 10 18 12 15 16 21 25 36 38 27 36 38 39 40 43 45 46 46 43 42 42 37 36 35 35 34
2 3 5 7 11 10 16 22 17 10 7 10 11 14 16 16 20 12 16 18 7 6 2 10 22 27 26 28 24 33 38 37 39 43 43 43 46 43 41 40 38 37 37 36
3 5 8 12 12 14 18 20 24 17 16 11 19 19 19 17 11 10 20 26 25 21 9 7 13 20 31 33 32 37 31 31 34 38 39 42 45 48 42 43 41 40 38 38
4 5 2 10 13 15 19 21 18 19 20 18 19 24 14 2 11 17 21 23 22 24 18 14 10 7 13 19 18 20 26 25 30 33 36 37 38 43 44 42 39 39 39 38
3 2 2 10 4 8 10 10 7 3 8 6 6 11 13 7 11 13 20 21 23 25 21 17 16 12 10 8 13 16 20 23 24 26 32 39 41 46 48 43 41 41 40 37
8 3 2 6 3 2 6 4 4 6 5 10 9 15 13 6 12 22 24 21 23 22 21 19 13 12 9 4 11 18 15 19 22 25 31 36 36 43 40 40 43 42 38 38
13 6 3 3 3 7 8 4 4 5 3 7 8 12 16 16 5 17 25 22 21 20 21 19 15 11 11 13 2 8 15 17 16 26 32 37 40 41 33 34 34 34 37 34
3 3 3 1 3 5 0 6 13 5 1 9 10 12 14 23 6 3 20 19 21 21 18 18 15 9 7 10 7 6 10 9 13 15 30 29 31 40 28 27 28 25 31 30
1 1 3 4 3 7 4 10 12 1 4 14 17 15 16 5 8 14 16 19 20 20 21 20 18 15 9 6 8 9 4 7 13 7 14 18 20 20 29 25 25 24 22 23
3 4 3 1 1 5 9 5 4 6 10 16 18 20 18 12 14 16 20 24 24 23 22 22 21 19 14 10 5 4 4 4 10 14 10 12 21 24 24 21 21 23 23 28
2 4 2 4 2 8 18 16 12 14 10 16 17 18 18 13 14 14 16 18 22 23 20 18 17 16 15 13 8 4 1 3 7 7 9 15 16 16 14 15 19 22 27 29
2 1 1 2 4 7 16 11 21 20 17 18 16 16 15 14 13 15 17 19 21 20 21 18 14 13 12 10 9 6 3 1 2 5 8 10 10 11 14 16 18 19 21 22
4 8 5 3 5 2 16 23 19 21 20 20 19 17 16 17 16 16 16 16 15 16 16 16 14 12 11 10 9 8 7 5 1 1 4 5 5 7 9 11 13 14 16 17
8 5 3 2 6 6 8 22 19 24 24 21 21 21 18 17 18 18 17 16 16 15 14 12 13 11 9 8 8 7 7 7 4 2 3 4 4 6 7 8 10 10 8 9
Wind_Direction
191 209 229 228 215 240 269 272 274 271 274 279 271 267 266 268 251 239 235 239 239 244 248 244 242 259 256 244 239 259 201 194 194 193 190 189 187 192 194 191 189 186 186 190
242 245 248 241 236 241 248 266 271 279 278 262 281 272 267 265 257 240 238 240 236 240 250 238 228 235 250 248 252 252 188 195 193 195 192 190 189 192 193 191 186 190 193 192
233 230 247 232 246 253 254 255 269 272 292 271 270 274 275 267 255 244 235 234 238 231 239 242 229 237 241 246 237 256 184 192 190 192 188 187 187 189 189 189 186 191 194 192
248 256 253 252 256 235 264 260 260 277 293 280 159 285 288 276 269 236 228 222 226 219 220 217 227 235 239 231 224 233 187 185 190 192 187 189 189 187 189 190 189 190 193 201
255 285 281 257 244 163 250 288 277 275 273 284 275 244 273 308 294 235 217 225 213 214 211 217 228 220 212 232 233 216 190 188 192 192 189 189 186 187 188 189 190 193 193 198
252 260 264 235 268 215 264 304 291 274 271 252 266 216 283 334 289 294 208 208 214 209 209 223 224 221 233 242 240 246 181 185 191 196 191 189 188 185 186 189 191 192 196 196
257 256 239 214 270 136 314 307 310 326 253 250 287 298 277 281 272 245 215 217 208 206 211 211 221 225 224 232 249 174 175 180 191 193 191 189 189 189 190 192 196 196 198 197
256 321 25 132 245 278 266 236 279 316 309 297 305 257 283 312 321 311 265 213 207 211 198 198 211 214 209 241 165 172 169 177 188 184 190 187 194 197 194 197 200 201 203 201
292 248 332 303 302 324 309 277 226 269 255 272 280 287 320 343 358 355 343 255 183 187 196 205 219 221 238 205 180 172 173 180 184 186 193 193 196 202 201 200 203 205 209 208
286 290 244 296 306 279 210 315 315 318 309 299 307 312 340 352 345 349 358 61 149 170 178 192 197 207 212 182 174 169 181 183 188 187 191 196 198 199 205 205 205 209 214 211
301 226 307 340 290 308 335 316 315 269 241 297 319 305 350 348 345 354 356 359 131 154 171 176 171 172 183 182 172 165 178 184 188 192 195 197 202 203 204 204 208 212 215 215
333 311 287 264 286 306 259 44 0 309 332 285 261 281 5 341 347 13 359 3 75 166 158 171 175 174 179 176 181 174 179 186 191 195 196 198 201 203 208 206 210 211 216 214
315 302 311 333 341 16 350 313 329 315 277 257 258 269 7 13 359 352 26 5 26 108 144 173 182 175 176 175 183 187 191 193 199 200 200 202 205 209 208 209 209 212 214 216
185 229 221 265 280 297 301 304 308 301 287 304 271 299 327 351 339 341 5 21 24 67 115 193 163 184 185 174 189 184 194 197 203 206 208 209 209 207 212 213 214 214 215 215
221 252 234 254 270 284 282 282 294 288 272 260 290 288 296 321 321 342 352 25 36 30 350 273 195 179 169 175 191 188 191 200 210 210 211 215 212 211 214 216 216 217 217 217
189 260 264 273 267 267 277 273 270 276 275 267 267 281 292 19 20 9 3 13 24 26 24 24 35 228 179 163 170 186 190 185 206 213 216 215 214 215 214 216 221 219 216 217
233 231 212 276 317 321 287 266 256 300 38 330 301 331 350 50 35 14 2 13 11 5 14 9 3 28 88 190 220 234 229 250 217 217 225 223 218 212 213 220 221 220 220 219
241 211 228 279 32 262 233 25 50 134 52 17 358 354 357 93 80 37 25 16 10 1 1 7 7 344 8 42 182 214 218 227 234 229 225 220 214 221 217 219 219 222 223 226
223 217 238 233 187 299 313 25 13 358 28 0 357 356 346 336 187 35 15 20 20 10 359 358 1 2 334 319 284 195 217 218 224 227 228 221 211 220 212 216 221 225 221 225
63 206 213 126 229 233 291 307 297 214 245 356 0 4 2 10 54 344 4 15 21 23 20 12 2 3 311 309 304 290 244 229 216 234 218 226 226 235 212 211 213 221 222 229
313 161 201 243 252 285 291 300 308 153 10 347 0 6 1 14 359 356 15 28 26 22 20 25 25 24 7 312 293 280 263 246 259 234 219 210 225 217 212 209 217 216 227 227
213 173 216 122 204 293 348 358 52 333 358 8 3 2 353 353 0 4 14 16 18 19 18 20 19 25 24 21 350 288 282 269 250 255 231 223 222 231 231 223 223 226 223 234
252 209 185 211 224 46 57 69 36 21 11 2 353 356 3 6 1 2 3 4 9 9 12 15 16 18 23 26 21 358 342 229 234 238 242 241 230 220 211 213 217 218 218 222
311 314 189 28 37 68 52 34 28 19 6 349 347 344 349 352 350 351 355 358 358 358 359 1 7 17 25 32 30 28 14 14 227 215 231 232 219 210 207 208 211 216 218 217
345 323 343 224 52 129 50 17 3 360 354 350 352 351 347 342 336 332 330 336 343 349 350 355 356 6 13 21 27 39 47 49 25 208 201 208 206 202 200 204 206 215 223 228
0 0 350 350 23 308 294 341 348 351 350 347 344 342 345 343 335 332 328 334 340 342 342 339 350 354 4 13 19 29 47 55 64 115 140 141 151 152 159 171 172 173 188 196
Height
1492 1495 1486 1481 1481 1474 1474 1471 1461 1437 1434 1442 1429 1406 1395 1393 1397 1392 1390 1391 1392 1390 1389 1402 1400 1394 1406 1416 1424 1417 1431 1438 1447 1454 1462 1469 1474 1487 1493 1497 1502 1508 1513 1520
1491 1481 1466 1470 1472 1472 1468 1463 1443 1423 1426 1430 1412 1390 1380 1379 1373 1373 1373 1375 1378 1381 1376 1387 1393 1395 1393 1395 1400 1408 1405 1427 1439 1448 1456 1463 1471 1481 1488 1494 1498 1503 1509 1516
1484 1462 1461 1464 1463 1464 1456 1451 1435 1433 1410 1413 1409 1378 1368 1356 1352 1350 1353 1356 1362 1364 1368 1360 1371 1378 1383 1388 1402 1398 1393 1413 1430 1442 1451 1461 1469 1476 1482 1488 1493 1497 1503 1511
1477 1460 1457 1457 1455 1455 1452 1427 1429 1422 1421 1404 1397 1374 1339 1341 1327 1327 1328 1336 1343 1348 1357 1361 1361 1367 1366 1384 1394 1381 1397 1405 1422 1434 1444 1450 1458 1466 1474 1481 1487 1492 1498 1505
1462 1455 1454 1456 1445 1443 1433 1423 1423 1417 1409 1401 1370 1382 1337 1330 1323 1314 1320 1328 1331 1334 1343 1355 1356 1359 1379 1372 1382 1386 1380 1398 1416 1429 1438 1446 1456 1463 1470 1475 1481 1488 1495 1501
1461 1453 1451 1439 1432 1434 1425 1425 1415 1404 1403 1398 1362 1368 1338 1333 1326 1316 1314 1319 1324 1326 1338 1340 1340 1345 1347 1358 1363 1375 1378 1397 1410 1422 1432 1442 1450 1456 1463 1469 1475 1483 1489 1496
1451 1439 1434 1434 1433 1428 1431 1426 1404 1405 1396 1387 1349 1351 1338 1328 1312 1307 1308 1303 1313 1326 1329 1331 1338 1342 1353 1362 1347 1337 1365 1390 1404 1416 1428 1436 1443 1450 1459 1464 1469 1476 1484 1489
1451 1452 1425 1427 1427 1423 1417 1417 1414 1401 1390 1369 1345 1345 1331 1321 1311 1301 1293 1293 1302 1308 1325 1332 1341 1343 1344 1342 1326 1347 1357 1383 1399 1412 1422 1431 1437 1446 1455 1461 1465 1470 1477 1482
1452 1441 1426 1422 1421 1419 1413 1414 1402 1401 1391 1376 1354 1335 1326 1315 1311 1303 1291 1285 1296 1307 1314 1315 1315 1315 1331 1337 1347 1356 1366 1381 1394 1407 1417 1425 1433 1442 1449 1455 1460 1467 1472 1479
1451 1443 1431 1423 1417 1408 1409 1406 1404 1404 1391 1376 1361 1350 1338 1329 1317 1315 1298 1296 1294 1301 1308 1309 1316 1323 1335 1338 1348 1353 1363 1379 1391 1404 1411 1419 1427 1436 1444 1450 1457 1461 1467 1474
1451 1447 1434 1429 1420 1415 1411 1412 1412 1400 1399 1380 1375 1359 1340 1333 1330 1323 1313 1307 1304 1308 1316 1318 1325 1328 1330 1327 1339 1352 1370 1382 1391 1400 1407 1415 1424 1432 1439 1445 1452 1457 1462 1469
1451 1446 1442 1434 1414 1410 1410 1418 1417 1406 1401 1396 1387 1369 1349 1343 1334 1329 1323 1315 1315 1315 1316 1321 1327 1329 1332 1334 1346 1357 1366 1378 1387 1395 1403 1411 1419 1427 1434 1440 1447 1452 1456 1461
1451 1450 1446 1438 1422 1412 1414 1412 1414 1417 1408 1394 1390 1373 1349 1347 1342 1329 1334 1325 1324 1324 1323 1323 1323 1329 1335 1338 1349 1354 1365 1376 1385 1393 1399 1408 1415 1423 1428 1434 1440 1445 1451 1455
1450 1449 1448 1445 1436 1432 1429 1414 1413 1415 1413 1396 1385 1374 1358 1357 1353 1347 1342 1335 1329 1328 1329 1330 1330 1331 1332 1338 1334 1355 1365 1374 1382 1390 1397 1403 1411 1416 1421 1427 1432 1439 1444 1450
1450 1445 1443 1438 1436 1433 1428 1422 1409 1409 1403 1403 1380 1378 1367 1367 1362 1358 1345 1339 1340 1338 1337 1337 1331 1332 1337 1339 1344 1349 1364 1371 1378 1385 1392 1398 1405 1411 1416 1420 1426 1432 1438 1444
1445 1442 1438 1435 1431 1429 1424 1413 1407 1400 1392 1386 1382 1370 1373 1369 1363 1360 1356 1348 1353 1351 1345 1339 1337 1339 1339 1342 1349 1355 1360 1368 1374 1381 1386 1393 1399 1405 1409 1415 1420 1426 1432 1437
1442 1441 1440 1429 1427 1427 1423 1404 1398 1396 1400 1394 1389 1384 1380 1377 1375 1371 1365 1361 1355 1349 1355 1348 1345 1342 1336 1343 1352 1356 1361 1366 1374 1378 1382 1387 1392 1396 1402 1408 1414 1419 1424 1429
1436 1436 1436 1432 1442 1453 1404 1400 1399 1401 1405 1403 1400 1394 1389 1386 1383 1378 1374 1370 1362 1360 1359 1355 1350 1346 1343 1347 1352 1356 1360 1365 1367 1369 1378 1379 1385 1390 1395 1401 1405 1412 1417 1420
1430 1433 1431 1431 1446 1423 1403 1405 1407 1404 1405 1404 1400 1396 1389 1384 1383 1383 1379 1376 1372 1366 1358 1354 1354 1349 1350 1350 1351 1356 1361 1363 1365 1369 1373 1375 1374 1365 1386 1392 1398 1404 1409 1414
1427 1428 1428 1435 1425 1446 1413 1408 1403 1403 1400 1406 1403 1399 1394 1385 1388 1392 1388 1382 1377 1375 1371 1363 1359 1353 1354 1353 1353 1355 1357 1359 1360 1362 1364 1368 1369 1364 1376 1384 1390 1396 1402 1406
1440 1430 1431 1429 1424 1430 1414 1407 1401 1407 1412 1409 1407 1403 1399 1396 1399 1396 1392 1387 1382 1378 1373 1368 1363 1359 1356 1354 1355 1359 1353 1354 1357 1360 1361 1364 1369 1362 1370 1377 1383 1389 1395 1399
1425 1429 1437 1436 1430 1431 1413 1407 1411 1423 1416 1413 1409 1405 1402 1399 1395 1391 1388 1384 1381 1378 1373 1368 1365 1362 1361 1359 1360 1356 1354 1352 1358 1361 1360 1363 1365 1366 1368 1371 1377 1382 1387 1390
1425 1421 1420 1421 1420 1418 1421 1424 1425 1422 1419 1416 1412 1408 1405 1400 1397 1393 1390 1386 1383 1381 1379 1375 1371 1368 1363 1360 1361 1362 1358 1358 1360 1360 1358 1365 1364 1362 1361 1365 1372 1377 1380 1386
1423 1421 1424 1420 1424 1423 1426 1426 1423 1422 1420 1417 1414 1410 1406 1402 1399 1395 1391 1388 1385 1382 1381 1379 1376 1373 1372 1369 1366 1364 1362 1359 1359 1359 1363 1364 1362 1361 1363 1367 1372 1374 1378 1379
1433 1426 1430 1421 1426 1427 1424 1426 1426 1422 1419 1416 1413 1409 1406 1402 1397 1395 1393 1391 1389 1386 1383 1380 1378 1375 1373 1370 1367 1365 1362 1361 1361 1361 1362 1363 1362 1361 1362 1365 1366 1371 1374 1378
1445 1447 1442 1432 1440 1439 1431 1429 1426 1422 1419 1416 1412 1407 1404 1401 1397 1393 1391 1389 1387 1385 1383 1380 1378 1376 1374 1372 1369 1367 1364 1363 1364 1365 1365 1362 1362 1361 1361 1364 1366 1370 1374 1378